Flag for U.S.A. Weather past 2 weeks in Los Angeles, California, U.S.A.

Now
71 °F

Sunny.


Feels Like: 77 °F
Forecast: 59 / 83 °F
Wind: No wind

Location: Los Angeles / USC Campus Downtown

Current Time: Apr 27, 2015 at 9:20:58 AM

Latest Report: Apr 27, 2015 at 8:47 AM


Visibility: 10 mi

Pressure: 29.93 "Hg

Humidity: 44%

Dew point: 48 °F

Location of Los AngelesLocation

Historic Weather in Los Angeles — Graph

°F

Los Angeles temperature yesterday

Maximum temperature yesterday: 77 °F (at 6:47 PM)
Minimum temperature yesterday: 55 °F (at 5:47 AM)
Average temperature yesterday: 65 °F

Past Weeks' High & Low Weather Summary

 TemperatureHumidityPressure
High80 °F (Apr 16, 12:47 PM)90% (Apr 12, 11:47 PM)30.09 "Hg (Apr 12, 11:47 PM)
Low55 °F (Apr 16, 5:47 AM)10% (Apr 16, 12:47 PM)29.83 "Hg (Apr 20, 5:47 PM)
Average64 °F61%29.94 "Hg
* Reported Apr 12 7:47 AM — Apr 27 7:47 AM, Los Angeles, Weather by CustomWeather, © 2015

Note: Actual official high and low records may vary slightly from our data, if they occured in-between our weather recording intervals... More about our weather records

Advertising

Los Angeles weather history for previous 24 hours

 ConditionsComfort  
Time TempWeatherWind HumidityBarometerVisibility
7:47 AM
Mon, Apr 27
65 °FSunny.No wind56%29.93 "Hg10 mi
6:47 AM59 °FClear.No wind69%29.91 "Hg9 mi
5:47 AM58 °FClear.No wind72%29.91 "Hg10 mi
4:47 AM58 °FClear.No wind78%29.90 "Hg10 mi
3:47 AM59 °FClear.No wind75%29.91 "Hg10 mi
2:47 AM60 °FClear.No wind75%29.90 "Hg10 mi
1:47 AM61 °FClear.No wind72%29.91 "Hg10 mi
12:47 AM62 °FClear.5 mph70%29.93 "Hg10 mi
11:47 PM
Sun, Apr 26
63 °FClear.5 mph63%29.92 "Hg10 mi
10:47 PM64 °FClear.5 mph58%29.92 "Hg10 mi
9:47 PM66 °FClear.8 mph52%29.90 "Hg10 mi
8:47 PM68 °FClear.5 mph49%29.89 "Hg10 mi
7:47 PM71 °FSunny.6 mph41%29.87 "Hg10 mi
6:47 PM77 °FSunny.6 mph24%29.85 "Hg10 mi
5:47 PM73 °FSunny.7 mph40%29.85 "Hg10 mi
4:47 PM71 °FSunny.3 mph44%29.88 "Hg10 mi
3:47 PM73 °FSunny.3 mph33%29.90 "Hg10 mi
2:47 PM72 °FSunny.9 mph34%29.93 "Hg10 mi
1:47 PM71 °FSunny.5 mph39%29.95 "Hg10 mi
12:47 PM73 °FSunny.6 mph40%29.95 "Hg10 mi
11:47 AM74 °FSunny.6 mph40%29.97 "Hg10 mi
10:47 AM69 °FSunny.No wind47%29.98 "Hg10 mi
9:47 AM66 °FSunny.3 mph56%29.99 "Hg10 mi
Weather by CustomWeather, © 2015

See weather overviewHow to use our weather pages